STARLINK-11081, 60405

Orbit data source: Space-Track

STARLINK-11081, 60405 is a payload satellite owned by SpaceX/Seattle (US) in LEO that was launched on Sat, 10 Aug 2024 UTC via an FALCON 9 launch vehicle from the Air Force Eastern Test Range (AFETR). Payload-class satellites include a variety of spacecraft equipped with specific instruments for various scientific and technological missions. These include communications satellites like Starlink; space stations such as the ISS; scientific satellites like the Hubble; Earth observation satellites from companies like Planet Labs, Umbra, and HawkEye 360; GPS; miniature CubeSats for education and research; and military/defense satellites.

Loading next visibility...
Identifier
60405, 2024-141H
Orbit
LEO
Last TLE update
19 hours ago
Origin
Manufacturer
SpaceX/Seattle
Mission
Operational Commercial Communications
Bus & Motor
STARLINK V2M, Unknown motor
Mass
730 kg wet, ~700 kg dry
Launch date (UTC)
2024-08-10 (11 months ago)
Launch vehicle
FALCON 9
Launch site
Air Force Eastern Test Range (AFETR)
Object type
Payload
Rocket body
Debris
Shape & HBR
Box + 2 Pan, 29 m
Radar Cross Section
36.964 m², Large (>1 m²)

Expand to show TLE details & history

TLE from 19 hours ago
0 STARLINK-11081
1 60405U 24141H   25186.36002734 -.00001396  00000-0 -66649-5 0  9991
2 60405  53.1598 225.7501 0001357  85.1523 274.9650 15.69699566 52844
Epoch: 2025-07-05T08:38Z
TLE epoch observation values (Epoch: 2025-07-05T08:38:26.362Z)
Latitude
0.00001°
Longitude
172.54107°
Altitude
360.593 km
Speed
7.694 km/s
True Right ascension
15h 03m 00s
True Declination
0° 00' 00"
Sunlit
Object was in full shadow at epoch
Visualization orbit readout
Latitude
53.30826°
Longitude
-100.10077°
Altitude
365.401 km
Speed
7.697 km/s
Apparent Right ascension
00h 30m 15s
Apparent Declination
12° 23' 04"
Sunlit
Object is in daylight
Visualization observer readout
Local Sidereal Time
15:18:43
Azimuth
46.144° ENE
Elevation
-24.713°
Doppler factor
1
Orbital elements
Apogee altitude
360.932 km
Perigee altitude
359.103 km
Semi-major axis
6,738.154 km
Eccentricity
0.00014
Inclination
53.1598°
RAAN
225.7501°
Arg. of periapsis
85.1523°
True anomaly
Unknown
Mean anomaly
274.965°
Eccentric anomaly
Unknown
Mean motion
3.92402 °/min
Orbital period
91.74 mins
BSTAR
-0.0000066649
Loading maneuver chart data...
Loading SW <> Apogee altitude chart data...
Loading historical data...
Loading historical data...
Loading historical data...
Loading historical data...
Loading historical data...
Loading historical data...
Loading historical data...

STARLINK-11081 Visibility forecast

Observer location: undefined°, undefined°

Span
Click to sort rows by Start time (UTC) header in descending order
Start Az.
Max El. time (UTC)
Max El. Az.
Max El.
End time (UTC)
End Az.
4 mins2025-07-06 04:40:43.522Z182.67° SSW2025-07-06 04:42:43.522Z119.775° SE24.38°2025-07-06 04:44:43.522Z74.147° E
4 mins2025-07-06 12:40:43.522Z278.463° WNW2025-07-06 12:42:43.522Z205.58° SW26.869°2025-07-06 12:44:43.522Z162.339° S
|